Theta_e
321 323 325 323 323 319 321 323 324 326 328 327 323 323 323 322 320 321 324 326 324 324 322 322 322 322 320 320 319 317 316 316 320 318 316 315 314 308 300 298 298 299 298
312 319 322 323 324 321 318 322 324 325 327 327 326 325 324 323 324 324 324 326 325 325 324 322 322 323 321 319 318 316 314 315 320 315 314 309 310 304 299 296 298 296 296
311 314 319 322 324 320 316 319 322 324 327 327 326 321 320 321 321 322 323 325 327 326 325 323 323 321 322 320 319 319 316 314 317 318 313 308 306 305 302 296 297 296 294
305 314 318 320 323 324 320 317 322 323 325 325 323 322 321 320 323 324 324 324 326 327 326 324 323 322 322 319 320 321 319 318 315 315 316 313 311 304 299 296 295 295 294
300 306 316 319 322 325 322 319 318 321 323 323 324 322 321 322 323 324 322 323 326 327 326 325 323 322 321 321 320 320 319 320 317 314 311 309 308 306 300 293 289 293 293
301 300 310 318 320 323 324 323 320 318 320 321 322 322 321 320 321 322 322 323 325 327 327 326 325 323 322 321 320 320 319 319 320 316 312 309 307 304 299 291 288 289 291
302 302 300 310 315 319 323 324 324 322 319 319 320 321 320 321 322 323 324 324 325 326 326 325 324 324 323 322 321 319 319 318 318 316 314 310 306 304 298 292 289 287 290
300 301 302 304 313 316 322 323 324 325 326 323 320 321 321 323 324 325 325 325 326 327 328 327 326 325 323 323 321 320 319 318 318 314 309 308 304 299 295 292 288 285 286
295 300 298 299 306 310 314 320 322 324 324 326 326 324 322 323 325 326 326 327 327 327 326 326 324 323 322 319 318 318 315 313 312 313 307 302 297 296 293 292 290 287 283
294 295 297 298 298 305 311 313 316 318 320 319 323 326 326 326 326 326 325 326 326 325 323 322 322 317 317 315 315 314 309 310 302 298 297 294 293 292 291 291 289 289 288
293 294 295 295 296 296 298 301 305 310 312 315 315 317 320 322 323 326 325 324 322 322 323 322 320 317 314 312 312 309 306 306 300 296 296 292 291 290 289 289 288 288 288
293 293 294 294 295 295 295 296 297 299 301 304 309 311 313 315 317 321 322 319 321 316 318 316 314 312 311 309 309 306 304 304 300 295 293 291 291 289 288 288 287 287 288
294 295 295 295 295 295 296 296 297 297 299 301 301 302 305 310 312 313 315 316 315 311 309 309 309 307 307 306 306 306 303 302 301 296 292 291 290 288 287 286 286 286 287
294 294 293 294 295 296 296 296 297 298 299 301 301 301 301 303 306 309 309 310 310 308 306 306 306 304 304 303 301 300 299 300 297 295 292 290 290 288 287 286 286 286 284
292 293 294 294 295 295 295 296 297 298 299 299 299 299 299 300 300 301 302 301 302 303 302 300 298 298 298 297 295 294 295 293 292 291 289 290 289 288 289 287 285 285 284
294 294 294 294 295 296 296 296 296 297 297 297 297 296 296 295 294 293 293 293 294 295 294 293 294 293 294 295 295 295 292 291 289 288 288 288 286 289 290 290 290 288 285
294 294 294 294 294 295 296 295 296 296 295 293 291 291 291 291 289 288 289 289 289 288 289 290 291 290 290 294 294 292 291 290 289 287 287 288 287 286 287 290 290 289 290
293 293 293 293 294 295 296 296 295 293 291 289 289 289 289 288 288 287 287 287 287 289 289 289 289 289 289 293 293 290 288 288 288 287 287 286 285 286 286 286 286 286 287
294 293 293 294 294 294 294 292 289 289 289 289 288 288 287 284 285 283 284 288 287 286 287 286 287 287 287 291 292 289 286 286 286 286 286 286 286 287 288 285 284 283 283
293 292 292 292 291 289 290 288 288 287 287 287 287 287 287 282 282 283 281 282 286 286 285 286 286 286 286 291 292 289 287 285 285 285 285 284 286 287 288 284 283 281 282
290 290 289 288 287 286 287 286 286 286 286 285 285 283 283 281 281 281 281 280 284 285 285 284 284 285 286 288 291 291 286 286 286 284 283 284 287 287 289 287 284 283 284
287 287 285 283 283 284 286 284 284 283 282 280 281 280 280 283 283 277 278 284 285 285 284 284 283 283 284 287 291 291 289 288 285 284 284 284 287 287 288 287 286 286 284
284 284 282 282 281 280 282 282 280 281 279 280 281 282 282 283 283 277 279 284 284 284 283 283 283 283 283 284 289 290 290 289 285 285 285 286 287 288 288 289 287 285 283
280 278 279 278 277 277 278 277 277 280 283 279 280 276 276 278 280 278 279 279 282 283 283 283 283 283 282 284 285 287 288 287 287 285 285 285 286 287 286 285 287 285 284
278 278 278 277 276 275 275 274 276 275 278 275 276 280 279 275 276 277 277 279 278 280 279 281 284 284 282 284 286 287 286 286 286 285 284 283 283 283 284 284 284 285 284
277 277 275 275 272 270 270 270 270 271 273 277 276 275 275 274 275 274 276 284 286 288 288 288 285 280 286 288 288 288 289 289 288 284 282 282 282 281 282 282 282 283 283
Wind_Speed
18 17 16 12 13 12 14 15 14 11 10 8 8 7 8 6 4 5 7 9 7 7 7 5 5 5 5 6 5 3 4 3 3 4 3 3 4 7 6 5 5 7 5
9 15 16 14 17 16 15 16 17 15 13 10 10 6 7 5 8 6 8 9 9 10 8 7 6 7 5 6 6 5 3 3 4 3 4 3 2 3 3 4 5 6 4
15 13 16 18 17 16 17 17 17 17 15 14 8 4 2 1 4 6 7 9 11 11 10 10 7 7 6 8 8 8 8 5 4 5 4 3 4 6 2 2 4 6 4
10 15 18 17 19 20 17 17 17 18 17 17 13 16 12 12 10 11 9 8 10 12 12 11 10 9 7 6 7 7 6 5 5 1 3 1 4 4 3 2 2 4 6
10 11 17 19 18 16 15 16 16 17 17 16 16 13 13 10 8 8 9 11 10 12 13 12 11 10 7 8 7 7 7 7 4 4 3 2 1 2 4 4 3 1 2
11 10 11 14 14 13 13 14 16 16 16 17 18 18 17 13 9 9 10 9 10 10 12 12 11 11 10 10 10 10 9 9 9 6 5 5 5 4 4 3 3 4 3
10 13 11 10 10 13 16 14 16 17 16 16 16 18 18 16 15 14 11 10 9 9 13 13 12 11 13 12 10 10 11 11 10 11 8 4 5 4 4 4 3 4 2
8 10 13 10 13 14 16 15 14 17 16 17 19 18 17 11 12 14 12 11 11 11 13 14 14 14 13 13 11 8 10 10 9 10 6 6 5 4 4 6 6 2 2
2 10 8 8 9 8 10 14 15 15 11 14 13 13 15 16 14 14 11 10 11 10 11 13 14 13 13 12 11 10 10 8 7 9 10 5 4 4 4 4 5 7 5
4 1 3 5 5 7 9 9 9 13 12 9 9 11 11 12 14 10 12 12 10 10 10 12 12 10 10 9 10 8 6 9 4 5 6 4 4 4 4 4 4 3 5
5 5 4 3 4 3 5 7 6 7 7 7 7 7 8 8 8 12 12 12 8 10 12 13 13 12 11 9 9 8 8 10 9 6 10 8 6 5 5 4 3 4 4
5 4 3 3 3 4 3 4 4 7 8 8 8 10 7 7 8 11 11 7 9 6 8 8 8 8 9 9 11 10 9 12 11 10 8 9 6 7 6 5 5 5 4
6 3 2 4 5 6 6 7 6 7 6 5 7 6 7 7 7 7 7 7 6 6 6 7 8 8 9 10 10 11 11 12 12 11 11 11 11 8 7 5 6 5 3
7 5 3 5 6 6 6 5 5 5 5 5 5 6 6 6 5 5 6 6 6 6 6 7 8 9 9 9 9 9 10 10 8 11 11 11 12 11 10 8 7 6 6
8 8 6 7 6 5 5 5 5 5 4 4 3 5 4 4 4 4 5 5 7 7 7 7 6 5 6 6 8 8 9 9 8 6 8 10 10 11 13 9 9 9 6
8 8 7 7 5 6 6 5 5 5 4 4 3 2 3 4 5 5 5 4 3 3 2 4 5 6 5 11 16 14 11 11 12 11 9 9 11 14 17 16 16 15 13
8 7 7 6 3 2 2 4 4 4 5 4 3 3 3 2 1 2 3 5 5 3 5 5 4 6 6 11 14 12 9 11 11 12 9 9 7 8 9 11 15 14 15
8 7 6 5 5 3 3 3 4 3 2 2 2 3 3 4 4 4 4 3 1 4 4 5 6 5 5 11 13 13 7 8 9 10 12 12 11 11 12 11 8 8 8
6 5 5 4 5 5 3 6 5 5 4 2 3 3 3 3 3 4 4 5 5 4 4 3 4 5 5 12 15 13 7 8 9 8 9 11 13 18 21 13 11 8 5
6 7 7 6 6 3 3 6 5 4 3 0 2 2 3 4 3 3 3 2 1 2 4 4 3 4 4 10 14 13 5 7 7 7 8 10 8 15 19 10 10 10 11
7 6 7 7 4 2 5 7 6 5 2 1 2 2 1 2 2 3 1 1 1 2 2 3 3 3 4 6 16 18 6 6 5 6 6 7 18 21 23 18 11 11 7
7 6 7 6 5 4 6 6 7 4 4 4 4 4 4 2 2 1 1 2 3 2 2 3 2 2 3 7 15 18 15 9 6 7 5 7 21 22 25 18 15 14 9
7 5 7 7 6 5 4 7 1 2 5 5 5 3 4 4 2 1 1 1 1 1 1 1 2 2 1 2 12 16 18 14 6 4 9 14 19 21 20 21 20 14 7
6 4 8 7 6 5 7 4 2 4 7 5 5 2 3 3 3 2 1 1 1 2 1 2 2 2 2 3 3 5 7 10 8 6 6 10 13 16 12 10 14 9 9
5 5 8 8 7 4 6 6 6 4 6 3 3 4 3 4 3 2 1 1 2 3 2 3 2 2 3 4 8 8 6 7 9 5 2 5 6 8 9 8 9 9 9
5 7 7 9 6 6 6 6 6 4 4 5 3 3 3 3 2 2 3 7 7 8 7 7 5 3 9 9 11 16 17 17 15 5 6 7 8 9 9 10 10 10 11
Wind_Direction
202 196 197 186 176 178 172 182 181 179 184 189 195 211 209 198 202 195 195 192 185 189 189 197 189 182 179 189 180 169 202 234 203 121 87 70 113 122 123 121 115 110 109
200 191 192 181 179 184 183 183 189 184 190 194 196 209 203 206 204 200 200 190 192 193 193 193 196 193 186 179 185 175 176 228 201 172 135 162 142 89 124 123 127 123 116
199 192 188 189 187 184 187 190 190 188 189 193 193 195 172 155 179 202 209 205 195 198 198 201 200 197 199 193 191 188 178 197 207 215 161 156 185 140 158 138 143 140 128
191 197 192 193 193 197 190 188 191 188 191 186 192 198 200 201 205 205 203 200 195 199 199 201 204 207 202 203 202 198 190 148 193 206 220 1 139 174 159 159 156 145 149
199 186 199 197 201 190 191 192 190 193 193 192 198 196 208 212 203 201 197 204 202 201 203 202 204 210 207 214 201 189 187 200 168 172 153 137 286 104 136 170 182 103 176
212 202 196 204 199 193 192 192 196 202 198 195 199 204 208 206 200 199 203 207 205 207 209 207 209 212 211 208 208 205 197 201 210 191 174 166 168 182 160 139 143 158 189
211 209 197 188 193 189 193 192 197 204 199 196 203 208 210 207 206 206 206 201 205 210 214 207 209 211 216 215 209 209 212 202 198 195 193 177 181 155 145 120 149 152 151
214 213 212 189 195 195 197 195 194 206 200 200 207 207 210 211 214 213 210 213 212 214 212 212 215 215 215 216 211 211 212 202 202 186 176 183 180 182 157 153 143 116 146
184 206 201 197 187 191 194 195 199 214 202 209 209 209 211 216 217 222 214 218 220 220 211 207 211 212 212 210 204 208 204 197 196 201 179 169 163 173 154 144 153 148 166
193 164 188 200 203 202 195 182 191 201 202 192 204 213 211 216 223 217 218 217 217 207 201 203 206 197 204 205 203 210 187 186 180 154 157 159 150 159 153 152 139 134 140
153 155 167 180 202 191 192 212 198 200 203 201 207 208 212 204 200 215 218 215 209 199 201 206 204 199 192 191 204 203 184 190 176 169 176 173 154 161 145 146 142 155 131
171 173 175 187 202 215 216 220 221 216 215 205 203 210 210 213 213 217 216 190 205 191 197 190 192 195 194 187 197 199 203 198 193 182 173 169 155 168 151 159 160 158 155
155 169 181 212 214 220 225 220 218 230 237 219 218 228 221 209 217 218 202 186 183 185 174 172 186 190 193 192 199 209 198 201 201 190 180 183 160 169 164 167 163 157 139
188 204 202 226 218 216 217 226 243 231 228 227 229 231 223 219 216 213 205 207 188 186 183 186 189 192 193 197 191 192 199 198 206 185 184 172 178 175 170 166 174 153 145
201 211 210 200 206 210 218 220 225 219 213 218 228 245 261 260 232 216 210 197 189 187 181 176 182 181 182 184 182 182 186 184 166 180 166 171 171 184 184 165 178 159 148
188 198 197 190 205 205 210 213 214 213 175 200 237 308 325 338 328 333 322 319 310 286 236 228 205 196 206 199 192 185 185 177 174 183 175 171 171 172 183 181 185 175 168
208 215 211 206 204 204 212 222 215 167 164 170 192 186 174 181 238 355 351 322 303 308 286 274 241 241 222 205 195 187 186 180 180 166 177 168 184 169 191 190 184 180 183
211 201 187 142 105 91 77 87 70 86 131 191 235 224 205 203 194 184 201 210 226 272 268 258 245 239 239 211 190 174 172 168 171 175 177 172 167 192 177 172 189 192 185
188 159 120 110 99 79 68 116 107 117 128 171 237 249 236 236 222 226 218 196 174 186 224 269 253 240 251 209 189 170 171 177 181 186 181 180 179 192 184 171 186 178 197
120 128 117 102 101 44 92 112 110 107 94 356 270 248 211 192 219 240 222 232 221 198 173 202 222 238 242 215 195 186 186 189 178 176 187 191 189 185 185 183 179 195 204
109 94 87 98 88 47 122 105 105 83 346 360 52 69 58 238 220 187 189 228 253 213 183 180 177 202 205 214 206 201 197 202 198 191 182 180 188 187 196 193 197 207 163
108 106 101 82 49 53 107 95 73 9 21 48 55 41 41 15 26 156 243 147 155 193 215 206 206 198 189 207 216 215 217 209 193 195 176 187 195 192 203 195 214 200 175
113 103 105 90 44 31 79 102 20 58 87 76 62 52 45 55 44 81 65 4 166 178 183 225 281 255 205 208 228 218 221 225 211 182 184 188 196 201 209 206 205 198 188
120 121 108 87 71 31 51 55 35 82 89 87 75 51 80 40 28 45 117 113 351 304 260 204 236 234 221 229 218 231 229 224 214 193 190 197 198 202 199 204 207 198 204
108 106 116 113 92 64 57 24 20 57 85 76 66 59 48 61 31 2 225 262 254 182 236 281 262 214 235 233 225 217 216 212 214 183 173 198 199 200 205 205 206 204 209
122 110 97 97 84 75 56 22 4 29 102 84 56 50 51 17 31 48 358 351 344 320 313 311 285 272 265 272 231 232 236 232 221 191 209 215 210 210 209 211 211 214 219